• Join FlightAware (Why Join?)
  • Login
  • US Flag 
10:07PM EDT


 

Airport Tracker/Info


-or-


 

Live Flight TrackerFlight Track Log ✈ N717MB ✈ 22-May-2013 ✈ KMML - KVTA

Flight Track Log - Related Links

Times and Time Zones

All times are in EDT time to prevent confusion due to time zone crossing. See the N717MB flight status page for this flight to view local times or setup timezone preferences in your user account.

Time Position Orientation Groundspeed Altitude Reporting Facility
EDT Latitude Longitude Course Direction KTS MPH feet Rate Location/Type
02:41PM 44.4636 -95.8453 115° Southeast 155 178 2,400  Level Minneapolis Center
02:42PM 44.4900 -95.7917 55° Northeast 191 220 5,500 2,760 Climbing Minneapolis Center
02:43PM 44.4650 -95.7158 115° Southeast 203 234 8,200 3,060 Climbing Minneapolis Center
02:44PM 44.4283 -95.6181 118° Southeast 263 303 11,900 3,600 Climbing Minneapolis Center
02:45PM 44.3889 -95.5150 118° Southeast 293 337 15,600 3,540 Climbing Minneapolis Center
02:46PM 44.3456 -95.4203 123° Southeast 291 335 19,200 2,940 Climbing Minneapolis Center
02:47PM 44.1518 -95.0383 115° Southeast  Level FlightAware Approximate
02:47PM 44.2908 -95.3289 130° Southeast 299 344 21,700  Level Minneapolis Center
02:48PM 44.2289 -95.2244 130° Southeast 338 389 24,200 2,640 Climbing Minneapolis Center
02:50PM 44.1500 -95.0947 130° Southeast 362 417 27,200 2,640 Climbing Minneapolis Center
02:51PM 44.0842 -94.9833 129° Southeast 369 425 29,700 2,400 Climbing Minneapolis Center
02:52PM 44.0181 -94.8736 130° Southeast 370 426 32,200 2,040 Climbing Minneapolis Center
02:53PM 43.9656 -94.7875 130° Southeast 366 421 33,900 1,740 Climbing Minneapolis Center
02:54PM 43.8878 -94.6575 130° Southeast 365 420 35,800 1,500 Climbing Minneapolis Center
02:55PM 43.8225 -94.5475 129° Southeast 368 423 37,100 1,200 Climbing Minneapolis Center
02:56PM 43.7367 -94.4122 131° Southeast 381 438 38,300 960 Climbing Minneapolis Center
02:57PM 43.6669 -94.2953 129° Southeast 391 450 39,200 780 Climbing Minneapolis Center
02:58PM 43.5961 -94.1806 130° Southeast 397 457 39,900 780 Climbing Minneapolis Center
02:59PM 43.5214 -94.0575 130° Southeast 404 465 40,800 480 Climbing Minneapolis Center
03:00PM 43.4481 -93.9400 131° Southeast 407 468 41,000 60 Climbing Minneapolis Center
03:01PM 43.3714 -93.8178 131° Southeast 418 481 41,000  Level Minneapolis Center
03:02PM 43.3094 -93.7164 130° Southeast 429 494 41,000  Level Minneapolis Center
03:03PM 43.1969 -93.5378 131° Southeast 443 510 41,000  Level Minneapolis Center
03:04PM 43.1164 -93.4111 131° Southeast 445 512 41,000  Level Minneapolis Center
03:05PM 43.0369 -93.2847 131° Southeast 444 511 41,000  Level Minneapolis Center
03:06PM 42.9542 -93.1594 132° Southeast 448 516 41,000  Level Minneapolis Center
03:07PM 42.8739 -93.0322 131° Southeast 444 511 41,000  Level Chicago Center
03:08PM 42.7936 -92.9075 131° Southeast 444 511 41,000  Level Chicago Center
03:09PM 42.7128 -92.7831 131° Southeast 444 511 41,000  Level Chicago Center
03:10PM 42.6319 -92.6586 131° Southeast 445 512 41,000  Level Chicago Center
03:11PM 42.5356 -92.5083 131° Southeast 446 513 41,000  Level Chicago Center
03:12PM 42.4547 -92.3844 131° Southeast 446 513 41,000  Level Chicago Center
03:13PM 42.3744 -92.2617 131° Southeast 443 510 41,000  Level Chicago Center
03:14PM 42.2931 -92.1381 132° Southeast 445 512 41,000  Level Chicago Center
03:15PM 42.1956 -91.9903 132° Southeast 443 510 41,000  Level Chicago Center
03:16PM 42.1136 -91.8678 132° Southeast 447 514 41,000  Level Chicago Center
03:17PM 42.0308 -91.7444 132° Southeast 449 517 41,000  Level Chicago Center
03:18PM 41.9481 -91.6214 132° Southeast 449 517 41,000  Level Chicago Center
03:19PM 41.8489 -91.4739 132° Southeast 449 517 41,000  Level Chicago Center
03:20PM 41.7661 -91.3508 132° Southeast 450 518 41,000  Level Chicago Center
03:21PM 41.6822 -91.2303 133° Southeast 448 516 41,000  Level Chicago Center
03:22PM 41.5992 -91.1075 132° Southeast 449 517 41,000  Level Chicago Center
03:24PM 41.5139 -90.9844 133° Southeast 445 512 41,000  Level Chicago Center
03:25PM 41.4306 -90.8603 132° Southeast 448 516 41,000  Level Chicago Center
03:26PM 41.3289 -90.7131 133° Southeast 449 517 41,000  Level Chicago Center
03:27PM 41.2439 -90.5922 133° Southeast 449 517 41,000  Level Chicago Center
03:28PM 41.1583 -90.4703 133° Southeast 451 519 41,000  Level Chicago Center
03:29PM 41.0744 -90.3494 133° Southeast 448 516 41,000  Level Chicago Center
03:30PM 40.9758 -90.2097 133° Southeast 448 516 41,000  Level Chicago Center
03:31PM 40.8917 -90.0900 133° Southeast 448 516 41,000  Level Chicago Center
03:32PM 40.8086 -89.9717 133° Southeast 446 513 41,000  Level Chicago Center
03:33PM 40.7242 -89.8528 133° Southeast 446 513 41,000  Level Chicago Center
03:34PM 40.6575 -89.7139 122° Southeast 456 525 41,000  Level Chicago Center
03:35PM 40.6011 -89.5311 112° Southeast 462 532 41,000  Level Chicago Center
03:36PM 40.5539 -89.3756 112° Southeast 459 528 41,000  Level Chicago Center
03:37PM 40.5064 -89.2206 112° Southeast 459 528 41,000  Level Chicago Center
03:38PM 40.4600 -89.0672 112° Southeast 453 521 41,000  Level Chicago Center
03:39PM 40.4144 -88.9142 111° Southeast 450 518 41,000  Level Chicago Center
03:40PM 40.3733 -88.7253 106° East 448 516 41,000 -300 Level Chicago Center
03:41PM 40.3375 -88.5714 107° East 442 509 40,400 -660 Descending Chicago Center
03:42PM 40.3061 -88.4278 106° East 426 490 39,700 -1,020 Descending Chicago Center
03:43PM 40.2725 -88.2797 107° East 427 491 38,300 -1,620 Descending Chicago Center
03:44PM 40.2319 -88.1006 106° East 430 495 36,400 -1,620 Descending Chicago Center
03:45PM 40.1981 -87.9531 107° East 428 493 35,000 -720 Descending Chicago Center
03:46PM 40.1647 -87.8103 107° East 415 478 35,000  Level Chicago Center
03:47PM 40.1306 -87.6642 107° East 420 483 35,000  Level Chicago Center
03:48PM 40.0972 -87.5228 107° East 410 472 35,000  Level Chicago Center
03:49PM 40.0642 -87.3869 108° East 396 456 35,000  Level Chicago Center
03:50PM 40.0264 -87.2261 107° East 389 448 35,000  Level Chicago Center
03:51PM 39.9936 -87.0928 108° East 388 447 35,000  Level Chicago Center
03:53PM 39.9528 -86.9311 108° East 387 445 35,000 -180 Level Indianapolis Center
03:54PM 39.9203 -86.7969 107° East 388 447 34,600 -540 Descending Indianapolis Center
03:55PM 39.8864 -86.6603 108° East 396 456 33,900 -780 Descending Indianapolis Center
03:56PM 39.8531 -86.5231 108° East 397 457 33,000 -480 Descending Indianapolis Center
03:57PM 39.8331 -86.3797 100° East 406 467 33,000 -120 Level Indianapolis Center
03:58PM 39.8486 -86.2183 83° East 441 507 32,800 -600 Descending Indianapolis Center
03:59PM 39.8811 -86.0583 75° East 454 522 31,800 -1,260 Descending Indianapolis Center
04:00PM 39.9214 -85.8667 75° East 457 526 30,300 -1,260 Descending Indianapolis Center
04:01PM 39.9542 -85.7094 75° East 453 521 29,300 -660 Descending Indianapolis Center
04:02PM 39.9858 -85.5542 75° East 445 512 29,000 -180 Descending Indianapolis Center
04:03PM 40.0169 -85.4031 75° East 435 501 29,000  Level Indianapolis Center
04:04PM 40.0472 -85.2525 75° East 431 496 29,000  Level Indianapolis Center
04:05PM 40.0792 -85.0975 75° East 443 510 29,000  Level Indianapolis Center
04:06PM 40.1128 -84.9333 75° East 467 537 29,000  Level Indianapolis Center
04:07PM 40.1511 -84.7386 75° East 473 544 29,000 -300 Level Indianapolis Center
04:08PM 40.1825 -84.5794 75° East 447 514 28,500 -1,020 Descending Indianapolis Center
04:09PM 40.2144 -84.4242 75° East 436 502 27,000 -1,500 Descending Indianapolis Center
04:10PM 40.2436 -84.2719 76° East 428 493 25,500 -1,500 Descending Indianapolis Center
04:11PM 40.2739 -84.1164 76° East 435 501 24,000 -2,040 Descending Indianapolis Center
04:12PM 40.3042 -83.9619 76° East 431 496 21,400 -2,820 Descending Indianapolis Center
04:13PM 40.3314 -83.8206 76° East 417 480 18,700 -2,940 Descending Indianapolis Center
04:14PM 40.3619 -83.6686 75° East 404 465 15,400 -3,060 Descending Indianapolis Center
04:15PM 40.3778 -83.5911 75° East 394 453 13,800 -2,760 Descending Indianapolis Center
04:15PM 40.3892 -83.5292 76° East 392 451 12,600 -2,460 Descending Indianapolis Center
04:16PM 40.3953 -83.4617 83° East 352 405 11,300 -1,980 Descending Indianapolis Center
04:16PM 40.3758 -83.3936 111° Southeast 317 365 10,600 -1,020 Descending Indianapolis Center
04:17PM 40.3614 -83.3508 114° Southeast 298 343 10,300 -1,080 Descending Indianapolis Center
04:17PM 40.3442 -83.2911 111° Southeast 300 345 9,500 -1,560 Descending Indianapolis Center
04:18PM 40.3358 -83.2383 102° East 298 343 8,600 -2,040 Descending Indianapolis Center
04:19PM 40.3192 -83.1461 103° East 282 325 6,700 -2,280 Descending Indianapolis Center
04:19PM 40.3075 -83.0864 104° East 282 325 5,100 -2,100 Descending Indianapolis Center
04:20PM 40.3006 -83.0508 104° East 273 314 4,600 -1,200 Descending Indianapolis Center
04:20PM 40.2875 -82.9922 106° East 273 314 3,900 -1,140 Descending Indianapolis Center
04:21PM 40.2772 -82.9636 115° Southeast 247 284 3,500 -900 Descending Indianapolis Center
04:22PM 40.2611 -82.9089 111° Southeast 258 297 3,000 -540 Descending Indianapolis Center
04:22PM 40.2514 -82.8814 115° Southeast 242 278 3,000  Level Indianapolis Center
04:23PM 40.2317 -82.8297 117° Southeast 247 284 3,000  Level Indianapolis Center
04:23PM 40.2192 -82.8011 120° Southeast 245 282 3,000  Level Indianapolis Center
04:24PM 40.1978 -82.7483 118° Southeast 247 284 3,000  Level Indianapolis Center
04:24PM 40.1828 -82.7153 121° Southeast 250 288 3,000  Level Indianapolis Center
04:25PM 40.1647 -82.6719 119° Southeast 245 282 3,000  Level Indianapolis Center
04:25PM 40.1519 -82.6464 123° Southeast 213 245 3,000  Level Indianapolis Center
04:26PM 40.1294 -82.5992 122° Southeast 229 264 3,000  Level Indianapolis Center